Weather reports worldwide

Advertisment
München-Flughafen, Germany (10870): temperature & dewpoint: 18.01.2020 03:00:00 - 24.01.2020 03:00:00 (CET)München-Flughafen, Germany (10870): temperature 5cm & temperature -5cm: 18.01.2020 03:00:00 - 24.01.2020 03:00:00 (CET)München-Flughafen, Germany (10870): temperature -20cm & temperature -100cm: 18.01.2020 03:00:00 - 24.01.2020 03:00:00 (CET)München-Flughafen, Germany (10870): wind speed & gusts: 18.01.2020 03:00:00 - 24.01.2020 03:00:00 (CET)München-Flughafen, Germany (10870): wind direction: 18.01.2020 03:00:00 - 24.01.2020 03:00:00 (CET)München-Flughafen, Germany (10870): reduced air pressure: 18.01.2020 03:00:00 - 24.01.2020 03:00:00 (CET)München-Flughafen, Germany (10870): visibility: 18.01.2020 03:00:00 - 24.01.2020 03:00:00 (CET)München-Flughafen, Germany (10870): sunshine duration: 18.01.2020 03:00:00 - 24.01.2020 03:00:00 (CET)München-Flughafen, Germany (10870): precipitation: 18.01.2020 03:00:00 - 24.01.2020 03:00:00 (CET)
Date & Time tt [°C] td [°C] tt 5cm [°C] tt -5cm [°C] tt -20cm [°C] tt -100cm [°C] ff [km/h] ff [kn] fx [km/h] fx [kn] dd ppp [hPa] vv [km] sd [min] rr [mm]
24.01.2020 03:00:00 -1,1 -2,2 -1,4 -0,6 1,1 4,5 8 4 16 9 W 1028,3 4,5 0 0,0
24.01.2020 02:00:00 -1,6 -2,0 -1,6 -0,6 1,1 4,5 5 3 8 4 WSW 1028,4 3,5 0 0,0
24.01.2020 01:00:00 -2,1 -2,4 -2,0 -0,7 1,1 4,5 4 2 7 4 W 1028,9 3,7 0 0,0
24.01.2020 00:00:00 -2,6 -2,9 -2,4 -0,9 1,1 4,5 3 1 5 3 W 1029,0 3,7 0 0,0
23.01.2020 23:00:00 -4,7 -5,0 -4,3 -1,2 1,1 4,5 5 3 5 3 SW 1029,5 4,5 0 0,0
23.01.2020 22:00:00 -5,6 -5,9 -7,5 -1,4 1,1 4,5 2 1 4 2 NW 1029,7 4,5 0 0,0
23.01.2020 21:00:00 -4,2 -4,3 -7,6 -1,0 1,1 4,5 4 2 5 3 - 1029,4 5 0 0,0
23.01.2020 20:00:00 -3,4 -3,7 -7,4 -0,5 1,2 4,5 4 2 8 4 NNW 1029,4 5 0 0,0
23.01.2020 19:00:00 -3,1 -3,3 -6,2 -0,1 1,2 4,5 5 3 8 4 NW 1029,5 6 0 0,0
23.01.2020 18:00:00 -2,1 -2,6 -5,1 -0,1 1,2 4,5 2 1 4 2 - 1029,5 7 0 0,0
23.01.2020 17:00:00 -0,2 -1,9 -2,6 -0,1 1,2 4,6 3 1 13 7 S 1029,2 10 0 0,0
23.01.2020 16:00:00 0,3 -1,7 0,5 -0,1 1,2 4,6 4 2 11 6 - 1029,9 10 0 0,0
23.01.2020 15:00:00 0,1 -2,0 0,8 -0,1 1,2 4,6 9 5 24 13 E 1030,8 10 0 0,0
23.01.2020 14:00:00 -0,3 -2,2 0,6 -0,2 1,2 4,6 11 6 31 17 E 1031,8 9 0 0,0
23.01.2020 13:00:00 -0,8 -2,3 0,1 -0,2 1,2 4,6 21 11 28 15 E 1033,0 8 0 0,0
23.01.2020 12:00:00 -1,2 -2,4 -0,5 -0,2 1,2 4,6 21 11 26 14 E 1033,9 7 0 0,0
23.01.2020 11:00:00 -1,7 -2,4 -1,2 -0,3 1,2 4,6 18 10 26 14 E 1035,1 5 0 0,0
23.01.2020 10:00:00 -2,4 -2,8 -2,0 -0,5 1,2 4,6 18 10 26 14 ESE 1035,4 3,5 0 0,0
23.01.2020 09:00:00 -2,6 -3,0 -2,3 -0,6 1,2 4,6 18 10 26 14 E 1035,8 3,5 0 0,0
23.01.2020 08:00:00 -3,1 -3,5 -2,9 -0,6 1,2 4,6 13 7 24 13 E 1036,0 3,0 0 0,0
23.01.2020 07:00:00 -3,2 -3,5 -3,0 -0,6 1,2 4,6 16 9 21 11 E 1036,2 3,5 0 0,0
23.01.2020 06:00:00 -3,2 -3,2 -2,9 -0,5 1,3 4,6 13 7 18 10 E 1036,3 1,2 0 0,0
23.01.2020 05:00:00 -3,4 -3,4 -2,9 -0,5 1,3 4,6 9 5 13 7 E 1036,8 0,8 0 0,0
23.01.2020 04:00:00 -3,4 -3,5 -3,0 -0,4 1,3 4,6 9 5 11 6 ESE 1037,2 1,2 0 0,0
23.01.2020 03:00:00 -3,5 -3,6 -3,0 -0,4 1,3 4,6 9 5 15 8 SE 1037,8 2,0 0 0,0
23.01.2020 02:00:00 -3,3 -3,6 -3,0 -0,4 1,3 4,6 8 4 11 6 ESE 1037,8 3,5 0 0,0
23.01.2020 01:00:00 -3,0 -3,8 -2,7 -0,3 1,3 4,6 7 4 11 6 E 1038,2 3,5 0 0,0
23.01.2020 00:00:00 -3,1 -4,0 -2,8 -0,3 1,3 4,6 5 3 9 5 NNE 1038,4 3,5 0 0,0
22.01.2020 23:00:00 -3,2 -4,0 -2,9 -0,3 1,3 4,6 5 3 10 5 N 1038,4 4,0 0 0,0
22.01.2020 22:00:00 -3,4 -4,4 -3,0 -0,2 1,3 4,6 5 3 11 6 - 1038,1 4,0 0 0,0
22.01.2020 21:00:00 -3,2 -4,1 -2,8 -0,1 1,3 4,6 5 3 11 6 NE 1037,8 4,0 0 0,0
22.01.2020 20:00:00 -3,0 -3,7 -2,7 -0,1 1,3 4,6 4 2 11 6 - 1037,4 4,0 0 0,0
22.01.2020 19:00:00 -3,0 -3,5 -2,7 -0,1 1,3 4,6 5 3 11 6 N 1037,2 5 0 0,0
22.01.2020 18:00:00 -2,9 -3,8 -2,6 0,0 1,3 4,6 6 3 13 7 S 1036,5 5 0 0,0
22.01.2020 17:00:00 -2,5 -3,6 -2,5 0,0 1,3 4,6 4 2 11 6 - 1036,1 4,0 0 0,0
22.01.2020 16:00:00 -2,5 -3,6 -1,9 0,0 1,3 4,6 5 3 16 8 NNE 1036,3 4,0 0 0,0
22.01.2020 15:00:00 -2,5 -3,6 -1,4 -0,1 1,3 4,6 9 5 15 8 NNW 1036,4 4,0 0 0,0
22.01.2020 14:00:00 -2,7 -3,9 -1,3 -0,1 1,3 4,6 4 2 15 8 W 1036,3 4,0 0 0,0
22.01.2020 13:00:00 -2,1 -3,4 -1,1 -0,1 1,3 4,7 8 4 14 7 NW 1036,6 4,5 0 0,0
22.01.2020 12:00:00 -2,8 -3,6 -1,7 -0,1 1,4 4,7 4 2 11 6 W 1037,2 4,0 0 0,0
22.01.2020 11:00:00 -3,0 -3,8 -2,3 -0,1 1,4 4,7 4 2 13 7 - 1038,0 3,0 0 0,0
22.01.2020 10:00:00 -3,5 -3,8 -2,7 -0,1 1,4 4,7 5 3 11 6 - 1037,9 2,5 0 0,0
22.01.2020 09:00:00 -3,5 -3,5 -2,8 -0,2 1,4 4,7 4 2 14 8 - 1038,1 2,0 0 0,0
22.01.2020 08:00:00 -3,4 -3,5 -3,0 -0,1 1,4 4,7 5 3 8 4 N 1037,7 4,0 0 0,0
22.01.2020 07:00:00 -3,6 -3,8 -3,1 -0,1 1,4 4,7 6 3 11 6 S 1037,4 2,5 0 0,0
22.01.2020 06:00:00 -3,6 -3,9 -3,1 -0,1 1,4 4,7 4 2 12 7 SSW 1037,3 2,0 0 0,0
22.01.2020 05:00:00 -3,4 -3,7 -3,0 -0,1 1,4 4,7 3 2 9 5 SE 1037,5 3,0 0 0,0
22.01.2020 04:00:00 -3,5 -3,5 -3,0 0,0 1,4 4,7 5 3 13 7 SSE 1038,1 3,0 0 0,0
22.01.2020 03:00:00 -3,2 -3,6 -2,8 0,0 1,4 4,7 4 2 11 6 - 1038,7 4,0 0 0,0
22.01.2020 02:00:00 -3,2 -3,7 -2,8 0,0 1,4 4,7 4 2 11 6 - 1039,0 4,0 0 0,0
22.01.2020 01:00:00 -3,1 -3,7 -2,7 0,0 1,4 4,7 7 4 11 6 E 1039,5 4,0 0 0,0
22.01.2020 00:00:00 -2,9 -3,7 -2,6 0,0 1,4 4,7 5 3 14 8 SE 1040,0 5 0 0,0
21.01.2020 23:00:00 -2,7 -3,5 -2,4 0,0 1,5 4,7 7 4 21 11 SE 1040,0 6 0 0,0
21.01.2020 22:00:00 -2,5 -3,5 -2,2 0,0 1,5 4,7 6 4 16 9 ESE 1040,4 7 0 0,0
21.01.2020 21:00:00 -2,4 -3,4 -2,1 0,0 1,5 4,7 9 5 16 9 ESE 1040,8 8 0 0,0
21.01.2020 20:00:00 -2,0 -3,3 -1,8 0,1 1,5 4,7 11 6 16 9 ESE 1041,1 10 0 0,0
21.01.2020 19:00:00 -2,1 -3,9 -1,9 0,1 1,5 4,7 6 3 13 7 E 1041,4 12 0 0,0
21.01.2020 18:00:00 -1,8 -3,7 -1,7 0,1 1,5 4,7 5 3 16 9 NE 1041,4 10 0 0,0
21.01.2020 17:00:00 -1,9 -4,0 -1,7 0,1 1,5 4,7 5 3 11 6 ENE 1041,7 10 0 0,0
21.01.2020 16:00:00 -1,8 -3,8 -1,4 0,1 1,5 4,7 8 4 15 8 E 1042,1 10 0 0,0
21.01.2020 15:00:00 -1,5 -3,4 -0,9 0,1 1,5 4,7 9 5 18 10 E 1042,4 10 0 0,0
21.01.2020 14:00:00 -1,5 -3,5 -0,5 0,0 1,5 4,7 8 5 15 8 E 1043,0 14 0 0,0
21.01.2020 13:00:00 -1,6 -3,5 -0,5 0,0 1,6 4,7 11 6 18 10 SE 1043,5 10 0 0,0
21.01.2020 12:00:00 -2,0 -3,8 -0,9 0,0 1,6 4,7 11 6 16 9 ENE 1044,1 10 0 0,0
21.01.2020 11:00:00 -1,7 -4,2 -0,6 0,0 1,6 4,7 7 4 18 10 ESE 1044,6 12 0 0,0
21.01.2020 10:00:00 -1,2 -3,9 0,1 0,0 1,6 4,7 5 3 16 8 SSE 1044,4 10 6 0,0
21.01.2020 09:00:00 -1,7 -3,2 -1,5 0,0 1,6 4,7 9 5 15 8 ESE 1044,3 8 0 0,0
21.01.2020 08:00:00 -1,7 -2,9 -1,6 0,0 1,6 4,7 8 4 21 11 E 1044,2 8 0 0,0
21.01.2020 07:00:00 -1,1 -2,5 -1,2 0,0 1,7 4,7 10 6 24 13 E 1043,9 11 0 0,0
21.01.2020 06:00:00 -1,0 -2,3 -1,1 0,0 1,7 4,7 15 8 24 13 ESE 1043,8 10 0 0,0
21.01.2020 05:00:00 -0,7 -2,3 -0,8 0,0 1,7 4,7 11 6 22 12 E 1043,9 10 0 0,0
21.01.2020 04:00:00 -0,6 -2,1 -0,8 0,0 1,7 4,7 15 8 22 12 E 1044,2 10 0 0,0
21.01.2020 03:00:00 -0,6 -2,2 -0,7 0,1 1,8 4,7 15 8 23 13 E 1044,5 10 0 0,0
21.01.2020 02:00:00 -0,5 -1,8 -0,6 0,1 1,8 4,7 14 8 25 14 ENE 1044,6 8 0 0,0
21.01.2020 01:00:00 -0,4 -1,6 -0,6 0,1 1,8 4,7 15 8 23 12 E 1044,5 7 0 0,0
21.01.2020 00:00:00 -0,5 -1,3 -0,7 0,1 1,9 4,7 11 6 18 10 ENE 1044,9 8 0 0,0
20.01.2020 23:00:00 -1,7 -2,4 -4,0 0,1 1,9 4,7 13 7 18 10 NNE 1045,5 12 0 0,0
20.01.2020 22:00:00 -0,4 -2,0 -2,1 0,1 2,0 4,8 13 7 22 12 ENE 1045,6 18 0 0,0
20.01.2020 21:00:00 -0,1 -2,0 -1,6 0,2 2,0 4,8 14 8 18 10 ENE 1045,6 25 0 0,0
20.01.2020 20:00:00 0,0 -1,9 -1,8 0,2 2,1 4,8 11 6 16 9 E 1046,0 10 0 0,0
20.01.2020 19:00:00 0,3 -2,0 -1,5 0,3 2,1 4,8 13 7 21 11 ENE 1046,3 35 0 0,0
20.01.2020 18:00:00 0,8 -1,7 -1,0 0,2 2,1 4,8 15 8 26 14 E 1046,2 40 0 0,0
20.01.2020 17:00:00 1,7 -1,3 0,9 1,2 2,0 4,8 16 9 29 16 E 1045,7 10 13 0,0
20.01.2020 16:00:00 2,3 -1,3 2,0 2,3 1,9 4,8 17 9 22 12 E 1045,6 40 52 0,0
20.01.2020 15:00:00 2,7 -0,8 4,1 2,9 1,8 4,8 14 8 24 13 E 1046,0 30 47 0,0
20.01.2020 14:00:00 1,7 -1,5 1,9 2,7 1,7 4,8 18 10 25 14 ESE 1046,5 10 7 0,0
20.01.2020 13:00:00 1,6 -1,2 2,8 1,6 1,7 4,8 9 5 23 12 SE 1046,7 10 1 0,0
20.01.2020 12:00:00 1,2 -0,8 2,4 0,2 1,7 4,8 9 5 18 10 ESE 1047,1 8 6 0,0
20.01.2020 11:00:00 0,8 -0,4 1,5 0,2 1,7 4,8 8 4 9 5 E 1047,5 5 19 0,0
20.01.2020 10:00:00 0,0 -0,5 0,3 0,1 1,8 4,8 8 4 9 5 NNE 1047,4 5 0 0,0
20.01.2020 09:00:00 -0,4 -0,6 -0,9 0,1 1,8 4,8 2 1 5 3 - 1046,9 4,0 0 0,0
20.01.2020 08:00:00 -0,7 -0,7 -1,1 0,1 1,8 4,8 2 1 4 2 N 1046,5 4,0 0 0,0
20.01.2020 07:00:00 -1,0 -1,0 -1,0 0,1 1,8 4,8 0 0 2 1 N 1046,0 3,5 0 0,0
20.01.2020 06:00:00 -1,3 -1,3 -2,7 0,1 1,9 4,8 0 0 4 2 N 1045,1 3,5 0 0,0
20.01.2020 05:00:00 -0,9 -0,9 -2,5 0,2 1,9 4,8 2 1 4 2 NNE 1044,9 7 0 0,0
20.01.2020 04:00:00 -0,7 -0,8 -1,1 0,2 1,9 4,8 4 2 8 4 W 1044,9 8 0 0,0
20.01.2020 03:00:00 0,3 -0,2 0,0 0,2 2,0 4,8 4 2 8 4 W 1044,8 9 0 0,0
20.01.2020 02:00:00 -0,1 -0,4 -0,3 0,2 2,0 4,8 5 3 9 5 W 1044,4 8 0 0,0
20.01.2020 01:00:00 -0,2 -0,5 -0,3 0,2 2,0 4,8 8 4 9 5 W 1043,8 9 0 0,0
20.01.2020 00:00:00 0,0 -0,7 -0,2 0,2 2,1 4,8 9 5 10 5 WSW 1043,5 9 0 0,0
19.01.2020 23:00:00 -0,2 -0,8 -0,4 0,2 2,2 4,8 5 3 13 7 W 1043,0 10 0 0,0
19.01.2020 22:00:00 -0,6 -1,3 -0,9 0,2 2,2 4,8 11 6 13 7 WSW 1042,6 20 0 0,0
19.01.2020 21:00:00 -1,1 -1,6 -2,9 0,2 2,3 4,8 9 5 13 7 SSW 1042,0 10 0 0,0
19.01.2020 20:00:00 -0,5 -1,6 -1,5 0,3 2,4 4,8 9 5 11 6 WSW 1041,2 10 0 0,0
19.01.2020 19:00:00 -0,2 -2,4 -3,4 0,3 2,4 4,8 6 3 9 5 W 1040,3 20 0 0,0
19.01.2020 18:00:00 0,5 -1,1 -3,7 0,4 2,5 4,8 4 2 5 3 WNW 1039,6 10 0 0,0
19.01.2020 17:00:00 0,5 -2,2 -2,8 0,7 2,4 4,8 5 3 14 7 W 1038,6 10 0 0,0
19.01.2020 16:00:00 1,7 -1,5 1,3 2,2 2,4 4,8 11 6 16 8 NW 1037,4 30 43 0,0
19.01.2020 15:00:00 2,2 -2,4 4,0 2,5 2,3 4,8 10 5 18 10 WNW 1036,5 40 24 0,0
19.01.2020 14:00:00 1,5 -1,4 1,2 2,7 2,2 4,8 13 7 21 11 NW 1036,3 10 1 0,0
19.01.2020 13:00:00 1,8 -0,1 2,8 3,0 2,1 4,8 12 6 20 11 WNW 1035,9 15 0 0,0
19.01.2020 12:00:00 1,6 -0,9 2,3 2,7 2,1 4,7 8 4 16 9 WNW 1035,8 15 0 0,0
19.01.2020 11:00:00 1,2 -0,5 1,6 1,6 2,1 4,7 9 5 13 7 W 1035,4 15 0 0,0
19.01.2020 10:00:00 0,9 -1,0 0,7 0,6 2,1 4,7 5 3 9 5 W 1034,5 17 0 0,0
19.01.2020 09:00:00 0,8 -0,6 0,3 0,3 2,2 4,7 8 5 13 7 W 1033,8 15 0 0,0
19.01.2020 08:00:00 0,4 -0,3 0,0 0,3 2,2 4,7 8 4 9 5 WSW 1033,1 10 0 0,0
19.01.2020 07:00:00 0,0 -0,8 -1,2 0,3 2,3 4,7 8 4 13 7 W 1032,6 10 0 0,0
19.01.2020 06:00:00 0,8 -0,4 0,2 0,3 2,4 4,7 11 6 15 8 W 1031,9 20 0 0,0
19.01.2020 05:00:00 0,8 -0,3 -0,1 0,2 2,4 4,7 11 6 18 10 WNW 1031,1 10 0 0,0
19.01.2020 04:00:00 0,9 -0,1 0,1 0,4 2,5 4,7 11 6 16 9 W 1030,8 25 0 0,0
19.01.2020 03:00:00 1,0 0,2 0,3 0,6 2,6 4,7 8 4 11 6 W 1030,6 25 0 0,0
19.01.2020 02:00:00 0,9 0,3 0,4 0,6 2,7 4,7 7 4 13 7 W 1030,4 25 0 0,0
19.01.2020 01:00:00 0,9 0,1 0,3 0,8 2,8 4,7 9 5 16 9 WSW 1030,0 20 0 0,0
19.01.2020 00:00:00 0,7 0,4 0,3 0,8 2,8 4,7 8 4 12 7 W 1029,9 10 0 0,1
18.01.2020 23:00:00 0,7 0,4 0,1 0,8 2,9 4,7 8 4 18 10 WSW 1029,6 10 0 0,0
18.01.2020 22:00:00 1,1 0,5 0,5 1,2 3,0 4,7 11 6 15 8 S 1029,7 25 0 0,1
18.01.2020 21:00:00 1,0 0,6 0,6 1,5 3,1 4,7 11 6 13 7 SW 1029,8 10 0 0,0
18.01.2020 20:00:00 1,4 0,5 0,9 1,6 3,2 4,7 5 3 15 8 W 1029,4 35 0 0,0
18.01.2020 19:00:00 1,1 0,3 0,7 1,9 3,2 4,7 2 1 33 18 SSE 1029,2 40 0 0,2
18.01.2020 18:00:00 2,7 1,5 2,2 2,5 3,2 4,7 18 10 36 20 W 1028,9 10 0 0,0
18.01.2020 17:00:00 2,7 1,0 1,7 2,9 3,2 4,7 14 7 21 11 SW 1028,0 50 0 0,0
18.01.2020 16:00:00 3,5 2,0 3,1 4,0 3,1 4,7 13 7 18 10 SW 1027,7 50 0 0,0
18.01.2020 15:00:00 3,8 2,4 4,0 4,8 3,0 4,7 14 7 22 12 SW 1027,7 50 6 0,0
18.01.2020 14:00:00 4,0 2,5 3,9 4,5 2,9 4,7 15 8 23 12 WSW 1027,9 10 0 0,0
18.01.2020 13:00:00 4,3 2,0 4,3 4,8 2,8 4,7 16 8 21 11 WSW 1028,1 45 0 0,0
18.01.2020 12:00:00 3,4 2,2 3,6 3,8 2,7 4,7 16 9 28 15 WSW 1028,6 10 0 0,3
18.01.2020 11:00:00 3,3 2,4 3,2 3,6 2,7 4,7 18 10 26 14 WSW 1028,8 10 0 0,0
18.01.2020 10:00:00 3,5 2,5 3,1 2,8 2,7 4,7 18 10 26 14 SW 1028,4 20 0 0,0
18.01.2020 09:00:00 3,4 2,6 3,0 2,5 2,7 4,7 19 11 26 14 SW 1028,1 20 0 0,0
18.01.2020 08:00:00 3,5 3,2 2,8 2,4 2,6 4,7 13 7 18 10 WSW 1027,8 20 0 0,0
18.01.2020 07:00:00 3,9 3,2 3,2 3,0 2,6 4,7 13 7 21 12 WSW 1027,0 20 0 0,0
18.01.2020 06:00:00 4,9 3,7 4,0 3,4 2,5 4,7 15 8 31 17 W 1026,1 10 0 0,7
18.01.2020 05:00:00 4,8 4,4 4,2 3,4 2,4 4,7 13 7 27 14 WSW 1025,5 9 0 1,4
18.01.2020 04:00:00 4,8 4,7 4,3 3,3 2,3 4,7 15 8 21 11 WSW 1024,9 6 0 0,5
18.01.2020 03:00:00 4,8 4,4 4,1 3,1 2,3 4,7 13 7 18 10 WSW 1024,5 8 0 0,3

tt = temperature
td = dewpoint
tt 5cm = temperature 5cm
tt -5cm = temperature -5cm
tt -20cm = temperature -20cm
tt -100cm = temperature -100cm
ff = wind speed
fx = gusts
dd = wind direction
ppp = reduced air pressure
vv = visibility
sd = sunshine duration
rr = precipitation

Next stations